TimeEDT,TemperatureF,Dew PointF,Humidity,Sea Level PressureIn,VisibilityMPH,Wind Direction,Wind SpeedMPH,Gust SpeedMPH,PrecipitationIn,Events,Conditions,WindDirDegrees,DateUTC
12:54 AM,64.9,55.9,73,29.94,10.0,SSW,13.8,-,N/A,,Scattered Clouds,200,2012-10-15 04:54:00
1:54 AM,64.9,57.0,75,29.92,10.0,South,13.8,-,N/A,,Overcast,190,2012-10-15 05:54:00
2:54 AM,66.0,57.0,73,29.88,10.0,SSW,15.0,-,N/A,,Overcast,200,2012-10-15 06:54:00
3:54 AM,66.0,57.0,73,29.85,10.0,SSW,12.7,-,N/A,,Overcast,200,2012-10-15 07:54:00
4:54 AM,66.0,57.0,73,29.83,10.0,SSW,11.5,-,N/A,,Overcast,200,2012-10-15 08:54:00
5:54 AM,66.0,57.9,75,29.82,10.0,SSW,13.8,-,N/A,,Mostly Cloudy,200,2012-10-15 09:54:00
6:54 AM,66.0,57.9,75,29.80,10.0,South,12.7,-,N/A,,Mostly Cloudy,190,2012-10-15 10:54:00
7:54 AM,66.0,57.9,75,29.79,10.0,SSW,9.2,-,N/A,,Overcast,200,2012-10-15 11:54:00
8:54 AM,66.9,57.9,73,29.80,10.0,SSW,10.4,-,N/A,,Overcast,200,2012-10-15 12:54:00
9:54 AM,68.0,57.9,70,29.79,10.0,SSW,12.7,-,N/A,,Overcast,200,2012-10-15 13:54:00
10:52 AM,69.8,59.0,68,29.78,8.0,SSW,15.0,25.3,0.00,Rain,Light Rain,210,2012-10-15 14:52:00
10:54 AM,69.1,57.9,68,29.78,7.0,SSW,15.0,25.3,0.00,Rain,Light Rain,210,2012-10-15 14:54:00
11:51 AM,68.0,60.8,78,29.78,10.0,WSW,16.1,-,0.00,Rain,Light Rain,240,2012-10-15 15:51:00
11:54 AM,68.0,60.1,76,29.78,10.0,WSW,16.1,-,0.00,Rain,Light Rain,240,2012-10-15 15:54:00
12:45 PM,66.2,60.8,83,29.76,7.0,WSW,11.5,-,0.00,Rain,Light Rain,240,2012-10-15 16:45:00
12:54 PM,66.9,62.1,84,29.74,7.0,WSW,10.4,-,0.00,Rain,Light Rain,240,2012-10-15 16:54:00
1:39 PM,66.2,62.6,88,29.73,10.0,SW,11.5,-,0.02,Rain,Light Rain,230,2012-10-15 17:39:00
1:54 PM,66.0,62.1,87,29.72,10.0,SW,9.2,-,0.02,,Overcast,230,2012-10-15 17:54:00
2:11 PM,66.2,62.6,88,29.71,10.0,SW,9.2,-,0.00,Rain,Light Rain,230,2012-10-15 18:11:00
2:18 PM,66.2,62.6,88,29.71,10.0,SW,6.9,-,0.00,Rain,Light Rain,230,2012-10-15 18:18:00
2:50 PM,66.2,62.6,88,29.71,8.0,SW,11.5,-,0.00,Rain,Light Rain,230,2012-10-15 18:50:00
2:54 PM,66.9,62.1,84,29.71,8.0,SW,11.5,-,0.00,Rain,Light Rain,230,2012-10-15 18:54:00
3:09 PM,66.2,62.6,88,29.70,7.0,SW,9.2,-,0.00,Rain,Light Rain,230,2012-10-15 19:09:00
3:54 PM,66.0,63.0,90,29.68,7.0,South,5.8,-,0.03,Rain,Light Rain,190,2012-10-15 19:54:00
4:31 PM,66.2,62.6,88,29.67,10.0,SSW,13.8,20.7,0.01,,Overcast,200,2012-10-15 20:31:00
4:54 PM,66.9,63.0,87,29.67,10.0,SSW,10.4,-,0.01,,Overcast,210,2012-10-15 20:54:00
4:57 PM,66.2,62.6,88,29.67,10.0,SW,12.7,-,N/A,,Overcast,220,2012-10-15 20:57:00
5:24 PM,66.2,62.6,88,29.68,9.0,WSW,15.0,-,0.00,Rain,Light Rain,240,2012-10-15 21:24:00
5:29 PM,66.2,62.6,88,29.68,9.0,WSW,12.7,-,0.00,Rain,Light Rain,250,2012-10-15 21:29:00
5:33 PM,66.2,62.6,88,29.68,10.0,WSW,12.7,-,0.00,Rain,Light Rain,250,2012-10-15 21:33:00
5:54 PM,66.0,62.1,87,29.69,10.0,WSW,10.4,-,0.00,,Overcast,250,2012-10-15 21:54:00
6:54 PM,64.9,60.1,84,29.69,10.0,NW,6.9,-,N/A,,Overcast,310,2012-10-15 22:54:00
7:54 PM,64.0,59.0,84,29.70,10.0,WNW,8.1,-,N/A,,Overcast,290,2012-10-15 23:54:00
8:54 PM,63.0,59.0,87,29.71,10.0,WSW,4.6,-,0.00,Rain,Light Rain,240,2012-10-16 00:54:00
9:54 PM,63.0,59.0,87,29.73,10.0,WSW,4.6,-,0.00,,Overcast,240,2012-10-16 01:54:00
10:54 PM,63.0,57.9,84,29.72,10.0,WNW,6.9,-,0.00,,Overcast,290,2012-10-16 02:54:00
11:54 PM,61.0,52.0,72,29.73,10.0,NW,8.1,-,N/A,,Overcast,320,2012-10-16 03:54:00